Hourly Data Report for January 02, 2018

All times are specified in Local Standard Time (LST). Add 1 hour to adjust for Daylight Saving Time where and when it is observed.

VICTORIA INTL A
BRITISH COLUMBIA

48°38'50.000" N
123°25'33.000" W
19.50 m
1018621
71799
YYJ

Download Data

Hourly Data (January 2018)
Hourly Data Report for January 2, 2018
Temp Definition
°C
Dew Point Temp Definition
°C
Rel Hum Definition
%
Wind Dir Definition
10's deg

Wind Spd Definition
km/h
Visibility Definition
km
Stn Press Definition
kPa
Hmdx Definition


Wind Chill Definition


Weather Definition


TIME
00:00 Legend Double Dagger 0.2 -0.3 97 28 7 32.2 102.93     LegendNANA
01:00 Legend Double Dagger 0.0 -0.4 97 28 5 24.1 102.92   -2 Mostly Cloudy
02:00 Legend Double Dagger 0.4 -0.1 96 30 9 24.1 102.93     LegendNANA
03:00 Legend Double Dagger 0.9 0.5 97 30 9 24.1 102.89     LegendNANA
04:00 Legend Double Dagger 1.6 1.0 96 30 8 24.1 102.87     Cloudy
05:00 Legend Double Dagger 1.5 0.9 96 28 9 24.1 102.83     LegendNANA
06:00 Legend Double Dagger 1.6 1.0 96 28 11 19.3 102.79     LegendNANA
07:00 Legend Double Dagger 1.6 0.9 95 29 10 19.3 102.72     Cloudy
08:00 Legend Double Dagger 1.8 1.0 94 28 11 19.3 102.68     LegendNANA
09:00 Legend Double Dagger 2.1 1.2 94 28 12 19.3 102.68     LegendNANA
10:00 Legend Double Dagger 2.8 1.8 93 29 10 24.1 102.69     Cloudy
11:00 Legend Double Dagger 3.5 1.8 88 28 12 24.1 102.66     LegendNANA
12:00 Legend Double Dagger 3.7 1.8 87 29 9 32.2 102.60     LegendNANA
13:00 Legend Double Dagger 4.4 2.3 86 33 7 32.2 102.53     Cloudy
14:00 Legend Double Dagger 4.4 2.4 86 29 10 32.2 102.45     LegendNANA
15:00 Legend Double Dagger 4.2 2.2 87 30 9 32.2 102.41     LegendNANA
16:00 Legend Double Dagger 4.0 2.1 88 30 9 32.2 102.39     Cloudy
17:00 Legend Double Dagger 3.8 2.1 89 28 5 32.2 102.38     LegendNANA
18:00 Legend Double Dagger 3.3 1.9 91 30 5 32.2 102.34     LegendNANA
19:00 Legend Double Dagger 2.5 1.6 94 26 5 32.2 102.33     Cloudy
20:00 Legend Double Dagger 2.1 1.6 96 26 4 32.2 102.33     LegendNANA
21:00 Legend Double Dagger 1.3 1.0 98 27 6 24.1 102.31     LegendNANA
22:00 Legend Double Dagger 1.3 1.0 98 26 7 19.3 102.30     Mostly Cloudy
23:00 Legend Double Dagger 1.7 1.4 98 29 10 19.3 102.30     LegendNANA

Notes on Data Quality.

Legend

  • E = Estimated
  • M = Missing
  • NA = Not Available
  • ‡ = Partner data that is not subject to review by the National Climate Archives
Date modified: